| time (UTC) | temp F | wind direction | speed MPH | gust MPH | rain 1hr in | rain 24hr in | rain mn in | humidity % | barometer mb |
| 20260831121746 | 64 | 280 | 16.0 | 26.0 | 0.00 | 0.00 | 0.00 | 82 | |
| 20260831111844 | 63 | 250 | 16.0 | 0.0 | 0.00 | 0.00 | 0.00 | 93 | |
| 20260831102046 | 59 | 250 | 18.0 | 29.0 | 0.00 | 0.00 | 0.00 | 99 | |
| 20260831091746 | 57 | 240 | 22.0 | 33.0 | 0.00 | 0.00 | 0.00 | 99 | |
| 20260831081846 | 57 | 200 | 24.0 | 0.0 | 0.00 | 0.00 | 0.00 | 99 | |
| 20260831071902 | 55 | 200 | 22.0 | 0.0 | 0.00 | 0.00 | 0.00 | 99 | |
| 20260831061822 | 57 | 250 | 29.0 | 47.0 | 0.00 | 0.00 | 0.00 | 93 | |
| 20260831052001 | 63 | 170 | 9.0 | 0.0 | 0.00 | 0.00 | 0.00 | 77 | |
| 20260831042046 | 61 | 210 | 9.0 | 0.0 | 0.00 | 0.00 | 0.00 | 77 | |
| 20260831031745 | 63 | 220 | 12.0 | 0.0 | 0.00 | 0.00 | 0.00 | 72 | |
| 20260831021845 | 61 | 260 | 12.0 | 0.0 | 0.00 | 0.00 | 0.00 | 82 | |
| 20260831011844 | 63 | 260 | 14.0 | 0.0 | 0.00 | 0.00 | 0.00 | 72 | |
| 20260831001744 | 63 | 250 | 12.0 | 0.0 | 0.00 | 0.00 | 0.00 | 67 | |
| 20260830231944 | 63 | 260 | 14.0 | 0.0 | 0.00 | 0.00 | 0.00 | 67 | |
| 20260830221945 | 63 | 260 | 14.0 | 0.0 | 0.00 | 0.00 | 0.00 | 67 | |
| 20260830211746 | 64 | 260 | 14.0 | 0.0 | 0.00 | 0.00 | 0.00 | 63 | |
| 20260830201944 | 64 | 250 | 14.0 | 0.0 | 0.00 | 0.00 | 0.00 | 63 | |
| 20260830191844 | 66 | 260 | 18.0 | 0.0 | 0.00 | 0.00 | 0.00 | 59 | |
| 20260830181746 | 66 | 250 | 20.0 | 0.0 | 0.00 | 0.00 | 0.00 | 59 | |
| 20260830171944 | 68 | 240 | 18.0 | 0.0 | 0.00 | 0.00 | 0.00 | 52 | |
| 20260830161845 | 70 | 240 | 14.0 | 0.0 | 0.00 | 0.00 | 0.00 | 56 | |
| 20260830151744 | 70 | 230 | 22.0 | 33.0 | 0.00 | 0.00 | 0.00 | 52 | |
| 20260830141844 | 73 | 240 | 20.0 | 33.0 | 0.00 | 0.00 | 0.00 | 46 | |
| 20260830131845 | 72 | 230 | 24.0 | 40.0 | 0.00 | 0.00 | 0.00 | 53 |